Weather in Châtel

France     46°15′58″N   6°50′29″E
temp.,
°C
wind,
m/s
gust,
m/s
humid.,
%
clouds,
%
prec.,
mm/h
press.,
hPa
HPBL,
m
5 march, fri
fri501:000s118587 0.1 102026
04:00−1s118864 0.0 101925
07:00+1sw119882 1.1 102068
10:00+2nnw1195100 1.3 1019274
13:00+2n1296100 1.9 1019275
16:00+2n2394100 0.4 1019369
19:00+1n229898 0.6 1021175
22:000ne1198100 0.1 1023105
6 march, sat
sat601:00−1e119599 0.1 102464
04:00−2se019483 0.0 102454
07:00−4sse119164 0.0 102647
10:00+1nnw118425 0.0 1026294
13:00+3nnw218719 0.0 1026414
16:00+3nnw118948 0.1 1025317
19:00−1e019442 0.1 102724
22:00−1sse229236 0.0 102828
7 march, sun
sun701:00−2sse228623 0.0 102831
04:00−2sse22843 0.0 102731
07:00−2sse228611 0.0 102629
10:00+3wnw118148 0.0 1024373
13:00+5wnw117656 0.1 1022753
16:00+4wnw118289 1.1 1019519
19:000sse119161 1.9 102023
22:00−1sse129119 0.1 102126
8 march, mon
mon801:00−2sse119217 0.1 102127
04:00−2se129119 0.0 101927
07:00−2se119017 0.0 101925
10:00+3ne117915 0.0 1018513
13:00+4n217845 0.1 1017710
16:00+3n228398 0.3 1016544
19:000n119579 0.6 101870
22:00−1sse119244 0.0 101944
9 march, tue
tue901:00−2sse129038 0.0 101925
04:00−3sse019011 0.0 101924
07:00−3e018923 0.0 102039
10:00+1n118252 0.0 1019431
13:00+2n228274 0.1 1019513
16:00+2n117497 0.1 1018694
19:00−1ne018780 0.1 102031
22:00−2sse118711 0.0 102225